TimeMST,TemperatureF,Dew PointF,Humidity,Sea Level PressureIn,VisibilityMPH,Wind Direction,Wind SpeedMPH,Gust SpeedMPH,PrecipitationIn,Events,Conditions,WindDirDegrees,DateUTC
12:15 AM,46.4,14.0,27,30.22,10.0,South,4.6,-,N/A,,Clear,180,2013-03-03 07:15:00
12:55 AM,44.6,10.4,25,30.22,10.0,ESE,3.5,-,N/A,,Clear,120,2013-03-03 07:55:00
1:15 AM,41.0,10.4,29,30.22,10.0,ESE,3.5,-,N/A,,Clear,110,2013-03-03 08:15:00
1:35 AM,41.0,10.4,29,30.20,10.0,ESE,6.9,-,N/A,,Clear,120,2013-03-03 08:35:00
1:55 AM,41.0,8.6,26,30.20,10.0,ESE,4.6,-,N/A,,Clear,110,2013-03-03 08:55:00
2:15 AM,41.0,10.4,29,30.19,10.0,ESE,5.8,-,N/A,,Clear,120,2013-03-03 09:15:00
2:35 AM,41.0,10.4,29,30.17,10.0,ESE,6.9,-,N/A,,Clear,120,2013-03-03 09:35:00
2:55 AM,44.6,10.4,25,30.16,10.0,SE,4.6,-,N/A,,Clear,140,2013-03-03 09:55:00
3:15 AM,44.6,10.4,25,30.16,10.0,Calm,Calm,-,N/A,,Clear,0,2013-03-03 10:15:00
3:35 AM,39.2,6.8,26,30.16,10.0,Calm,Calm,-,N/A,,Clear,0,2013-03-03 10:35:00
3:55 AM,39.2,8.6,28,30.16,10.0,Calm,Calm,-,N/A,,Clear,0,2013-03-03 10:55:00
4:35 AM,37.4,8.6,30,30.15,10.0,North,4.6,-,N/A,,Clear,10,2013-03-03 11:35:00
4:55 AM,41.0,10.4,29,30.15,10.0,Calm,Calm,-,N/A,,Clear,0,2013-03-03 11:55:00
5:15 AM,39.2,8.6,28,30.15,10.0,Calm,Calm,-,N/A,,Clear,0,2013-03-03 12:15:00
5:35 AM,35.6,8.6,33,30.15,10.0,Calm,Calm,-,N/A,,Clear,0,2013-03-03 12:35:00
5:55 AM,37.4,6.8,28,30.15,10.0,Calm,Calm,-,N/A,,Clear,0,2013-03-03 12:55:00
6:15 AM,32.0,6.8,35,30.14,10.0,Calm,Calm,-,N/A,,Clear,0,2013-03-03 13:15:00
6:35 AM,35.6,6.8,30,30.14,10.0,Calm,Calm,-,N/A,,Clear,0,2013-03-03 13:35:00
6:55 AM,37.4,8.6,30,30.15,10.0,SW,4.6,-,N/A,,Clear,230,2013-03-03 13:55:00
7:15 AM,37.4,8.6,30,30.15,10.0,SW,5.8,-,N/A,,Clear,220,2013-03-03 14:15:00
7:35 AM,37.4,8.6,30,30.16,10.0,SSW,4.6,-,N/A,,Clear,210,2013-03-03 14:35:00
7:55 AM,44.6,15.8,31,30.16,10.0,SSE,5.8,-,N/A,,Clear,160,2013-03-03 14:55:00
8:15 AM,50.0,19.4,30,30.15,10.0,South,9.2,-,N/A,,Clear,190,2013-03-03 15:15:00
8:55 AM,57.2,21.2,25,30.14,10.0,South,15.0,-,N/A,,Clear,180,2013-03-03 15:55:00
9:15 AM,59.0,21.2,23,30.14,10.0,South,16.1,-,N/A,,Clear,170,2013-03-03 16:15:00
9:55 AM,62.6,19.4,19,30.12,10.0,South,19.6,25.3,N/A,,Clear,170,2013-03-03 16:55:00
10:15 AM,64.4,17.6,16,30.11,10.0,SSE,17.3,23.0,N/A,,Clear,160,2013-03-03 17:15:00
10:35 AM,64.4,17.6,16,30.10,10.0,SSE,18.4,23.0,N/A,,Clear,160,2013-03-03 17:35:00
10:55 AM,66.2,17.6,15,30.09,10.0,South,18.4,23.0,N/A,,Clear,180,2013-03-03 17:55:00
11:15 AM,66.2,15.8,14,30.08,10.0,South,17.3,23.0,N/A,,Clear,170,2013-03-03 18:15:00
11:35 AM,68.0,15.8,13,30.07,10.0,South,17.3,-,N/A,,Clear,170,2013-03-03 18:35:00
11:55 AM,69.8,15.8,13,30.06,10.0,SSE,13.8,21.9,N/A,,Clear,160,2013-03-03 18:55:00
12:15 PM,68.0,12.2,12,30.05,10.0,South,12.7,19.6,N/A,,Clear,170,2013-03-03 19:15:00
12:35 PM,71.6,12.2,10,30.03,10.0,South,11.5,18.4,N/A,,Clear,180,2013-03-03 19:35:00
12:55 PM,71.6,10.4,9,30.02,10.0,SW,9.2,21.9,N/A,,Clear,230,2013-03-03 19:55:00
1:15 PM,73.4,12.2,10,30.00,10.0,South,12.7,24.2,N/A,,Clear,170,2013-03-03 20:15:00
1:55 PM,75.2,5.0,7,29.97,10.0,SW,15.0,23.0,N/A,,Clear,230,2013-03-03 20:55:00
2:15 PM,75.2,5.0,7,29.96,10.0,WSW,18.4,23.0,N/A,,Clear,240,2013-03-03 21:15:00
2:55 PM,77.0,6.8,7,29.94,10.0,SSW,13.8,19.6,N/A,,Clear,200,2013-03-03 21:55:00
3:35 PM,77.0,5.0,6,29.93,10.0,SW,12.7,17.3,N/A,,Clear,220,2013-03-03 22:35:00
3:55 PM,77.0,3.2,6,29.92,10.0,WSW,16.1,-,N/A,,Clear,250,2013-03-03 22:55:00
4:15 PM,77.0,1.4,5,29.92,8.0,SW,17.3,23.0,N/A,,Clear,220,2013-03-03 23:15:00
4:35 PM,75.2,-0.4,5,29.91,10.0,SW,15.0,20.7,N/A,,Clear,230,2013-03-03 23:35:00
4:55 PM,75.2,-2.2,5,29.91,10.0,West,15.0,19.6,N/A,,Clear,260,2013-03-03 23:55:00
5:15 PM,73.4,-2.2,5,29.92,10.0,WSW,16.1,-,N/A,,Clear,250,2013-03-04 00:15:00
5:35 PM,73.4,-2.2,5,29.91,10.0,WSW,10.4,19.6,N/A,,Clear,250,2013-03-04 00:35:00
5:55 PM,71.6,-2.2,5,29.92,10.0,WSW,9.2,-,N/A,,Clear,240,2013-03-04 00:55:00
6:15 PM,69.8,-2.2,6,29.92,10.0,WSW,11.5,-,N/A,,Clear,240,2013-03-04 01:15:00
6:35 PM,68.0,-0.4,7,29.93,10.0,WSW,12.7,-,N/A,,Clear,250,2013-03-04 01:35:00
6:55 PM,69.8,3.2,7,29.95,10.0,West,19.6,23.0,N/A,,Clear,260,2013-03-04 01:55:00
7:15 PM,69.8,5.0,8,29.95,7.0,WSW,17.3,25.3,N/A,,Clear,250,2013-03-04 02:15:00
7:35 PM,68.0,6.8,9,29.96,7.0,West,10.4,-,N/A,,Clear,260,2013-03-04 02:35:00
7:55 PM,66.2,6.8,10,29.96,5.0,WSW,6.9,-,N/A,,Haze,250,2013-03-04 02:55:00
8:15 PM,66.2,6.8,10,29.96,4.0,WSW,6.9,-,N/A,,Haze,240,2013-03-04 03:15:00
8:35 PM,62.6,14.0,15,29.96,3.0,SSE,4.6,-,N/A,,Haze,150,2013-03-04 03:35:00
8:55 PM,62.6,15.8,16,29.95,5.0,SSE,8.1,-,N/A,,Haze,150,2013-03-04 03:55:00
9:15 PM,62.6,14.0,15,29.96,5.0,SE,5.8,-,N/A,,Haze,130,2013-03-04 04:15:00
9:35 PM,60.8,17.6,19,29.97,4.0,SE,6.9,-,N/A,,Haze,140,2013-03-04 04:35:00
9:55 PM,62.6,12.2,14,29.98,5.0,South,6.9,-,N/A,,Haze,170,2013-03-04 04:55:00
10:15 PM,62.6,14.0,15,29.98,8.0,South,6.9,-,N/A,,Clear,180,2013-03-04 05:15:00
10:35 PM,62.6,12.2,14,29.97,10.0,South,3.5,-,N/A,,Mostly Cloudy,180,2013-03-04 05:35:00
10:55 PM,59.0,17.6,20,29.96,10.0,South,5.8,-,N/A,,Mostly Cloudy,170,2013-03-04 05:55:00
11:15 PM,57.2,17.6,21,29.96,10.0,SSE,6.9,-,N/A,,Scattered Clouds,160,2013-03-04 06:15:00
11:35 PM,57.2,17.6,21,29.96,10.0,SSW,4.6,-,N/A,,Scattered Clouds,200,2013-03-04 06:35:00
11:55 PM,62.6,12.2,14,29.96,10.0,WSW,5.8,-,N/A,,Scattered Clouds,240,2013-03-04 06:55:00